This is the latest recevied weather packets stored in our database for station/object KJ5BMY-13. If no packets are shown the sender has not sent any weather packets the latest 10 day(s).
| Time | Temp. | Humidity | Pressure | Rain* | Wind** | Luminosity | Snow |
|---|---|---|---|---|---|---|---|
| 1778106272 | 16.67° C | 76% | 1016.1 hPa | 0 mm | - | - | - |
| 1778105969 | 16.67° C | 76% | 1016.1 hPa | 0 mm | - | - | - |
| 1778105666 | 16.67° C | 76% | 1016 hPa | 0 mm | - | - | - |
| 1778105364 | 16.67° C | 75% | 1015.8 hPa | 0 mm | - | - | - |
| 1778105059 | 16.67° C | 75% | 1015.4 hPa | 0 mm | - | - | - |
| 1778104756 | 17.22° C | 74% | 1015.7 hPa | 0 mm | - | - | - |
| 1778104452 | 17.22° C | 74% | 1015.6 hPa | 0 mm | - | - | - |
| 1778104148 | 17.22° C | 74% | 1015.6 hPa | 0 mm | - | - | - |
| 1778103845 | 17.22° C | 73% | 1015.6 hPa | 0 mm | - | - | - |
| 1778103543 | 17.78° C | 72% | 1015.8 hPa | 0 mm | - | - | - |
| 1778103240 | 17.22° C | 73% | 1015.9 hPa | 0 mm | - | - | - |
| 1778102938 | 17.78° C | 72% | 1015.8 hPa | 0 mm | - | - | - |
| 1778102633 | 17.22° C | 72% | 1015.9 hPa | 0 mm | - | - | - |
| 1778102328 | 18.33° C | 71% | 1015.9 hPa | 0 mm | - | - | - |
| 1778102024 | 17.78° C | 71% | 1015.8 hPa | 0 mm | - | - | - |
| 1778101722 | 18.33° C | 70% | 1015.6 hPa | 0 mm | - | - | - |
| 1778101419 | 18.33° C | 71% | 1015.8 hPa | 0 mm | - | - | - |
| 1778101116 | 17.78° C | 73% | 1015.8 hPa | 0 mm | - | - | - |
| 1778100812 | 18.33° C | 70% | 1015.9 hPa | 0 mm | - | - | - |
| 1778100509 | 18.33° C | 70% | 1016 hPa | 0 mm | - | - | - |
| 1778100206 | 18.33° C | 71% | 1016.2 hPa | 0 mm | - | - | - |
| 1778099904 | 17.78° C | 71% | 1016.2 hPa | 0 mm | - | - | - |
| 1778099601 | 17.78° C | 71% | 1015.9 hPa | 0 mm | - | - | - |
| 1778099297 | 17.78° C | 71% | 1016 hPa | 0 mm | - | - | - |
| 1778098995 | 17.78° C | 71% | 1016.4 hPa | 0 mm | - | - | - |
* Rain latest hour (hover to see other rain measurements)
** Current wind speed in m/s (hover to see current wind gust speed)